www.pogodaiklimat.ru

Погода и климат >> Архив погоды >> Россия >> Краснодарский край >> Туапсе


АРХИВ ПОГОДЫ в Туапсе

Время (UTC), дата Ветер
(напр.,м/с)
 
Видим.   Явления Облачность Т
(С)
Тd
(С)
f
(%)
Тe
(С)
Тes
(С)
Комфортность P
(гПа)
Po
(гПа)
Тmin
(С)
Tmax
(С)
R
(мм)
R24
(мм)
S
(см)
00 15.02 СВ 3 10 км 10/6 1000 м
[Sc Ci fib]
+8.7 -1.8 48 +7 +7 тепло 1018.3 1010.8
03 15.02 СВ 3 10 км 10/0
[Ci sp]
+7.1 -1.4 55 +5 +5 тепло 1018.7 1011.1 +7.0
06 15.02 Ю 1 20 км 10/8 1000 м
[Cu Sc Ci sp]
+9.3 +0.3 53 +9 +10 тепло 1020.8 1013.2 +6.4
09 15.02 ЮВ 5
{14}
20 км 10/6 1000 м
[Cu Sc Ci sp]
+11.6 +4.5 62 +9 +10 тепло 1022.5 1015.0
12 15.02 ЮВ 4
{11}
20 км 9/8 1000 м
[Cu Sc Ac trans Ci sp]
+11.8 +3.3 56 +10 +10 тепло 1023.1 1015.6
15 15.02 В 1 20 км 8/5 1000 м
[Cu Sc Ci sp]
+10.4 +4.8 68 +10 +10 тепло 1023.5 1015.9 +12.9
18 15.02 С 2 10 км 10/5 1000 м
[Sc Ci sp]
+8.9 +2.2 63 +7 +7 тепло 1023.6 1016.0
21 15.02 СВ 2 10 км 10/8 600 м
[Cu Sc Ci sp]
+10.3 -1.0 45 +9 +9 тепло 1023.2 1015.7
00 16.02 С 1 10 км 10/8 600 м
[Cu Sc Ci sp]
+11.3 -0.8 43 +12 +12 тепло 1022.8 1015.3
03 16.02 С 3 10 км 10/4 1000 м
[Cu Sc Ci sp]
+11.4 -0.3 44 +10 +10 тепло 1022.5 1015.0 +8.2
06 16.02 СВ 4 20 км 9/6 1000 м
[Cu Sc Ci]
+12.5 -1.0 39 +11 +12 тепло 1022.6 1015.1
09 16.02 СВ 2 20 км 8/3 1000 м
[Cu Sc Ci fib]
+17.4 -0.7 29 +18 +22 тепло 1022.1 1014.7
12 16.02 Ю 1 20 км 4/3 1000 м
[Sc Ci fib]
+18.4 +4.7 40 +20 +23 тепло 1020.9 1013.6
15 16.02 СВ 2 20 км 8/3 1000 м
[Sc Ci]
+16.1 -1.3 30 +16 +16 тепло 1020.4 1013.0 +20.6
18 16.02 СВ 3 10 км 6/0
[Ci]
+13.7 -0.1 39 +13 +13 тепло 1020.2 1012.7
21 16.02 СВ 2 10 км 10/0
[Ci]
+11.9 +1.1 48 +11 +11 тепло 1020.1 1012.6
00 17.02 С 2 н/о н/о +10.1 +1.7 56 +9 +9 тепло 1019.9 1012.4
03 17.02 СВ 2 10 км 10/0
[Ci]
+9.8 +1.2 55 +9 +9 тепло 1019.1 1011.6 +9.8
06 17.02 СВ 2 20 км 10/1 1000 м
[Cu med, cong Ac trans Ci sp]
+10.4 +2.0 56 +9 +10 тепло 1019.4 1011.9 +8.3
09 17.02 ЮВ 3 20 км 8/1 1000 м
[Cu med, cong Ci sp]
+12.9 +5.9 62 +12 +16 тепло 1019.6 1012.2
12 17.02 Ю 2 20 км 8/3 1000 м
[Cu med, cong Ac trans Ci sp]
+11.6 +6.2 69 +11 +12 тепло 1018.3 1010.8
15 17.02 ЮВ 3 20 км 10/8 1000 м
[Cu Sc Ac trans Ci sp]
+9.8 +6.5 80 +8 +8 тепло 1018.5 1011.0 +15.0
18 17.02 ЮВ 2 10 км 10/10 600 м
[Cu Sc]
+9.6 +6.5 81 +8 +8 тепло 1018.9 1011.4
21 17.02 ЮВ 3 10 км 10/10 600 м
[Cu Sc]
+9.7 +6.1 78 +8 +8 тепло 1018.8 1011.3
00 18.02 штиль 0 10 км 10/10 600 м
[Cu Sc]
+9.5 +5.6 77 +9 +9 тепло 1018.3 1010.8
03 18.02 СВ 2 10 км 10/10 600 м
[Cu Sc]
+8.2 +4.0 75 +6 +6 тепло 1018.6 1011.1 +8.1
06 18.02 СВ 2 20 км {ливн. осадки} 9/9 1000 м
[Cb cap]
+7.7 +2.4 69 +6 +6 тепло 1018.5 1010.9 +7.5
09 18.02 В 2 20 км 9/4 1000 м
[Cu Sc Ac cast]
+10.9 +2.6 57 +10 +12 тепло 1018.6 1011.1
12 18.02 В 2 20 км 10/5 1000 м
[Cb cap Ci fib]
+12.5 +2.9 52 +12 +13 тепло 1018.2 1010.8
15 18.02 С 3 20 км 10/0
[Ci sp]
+7.1 +1.4 67 +4 +4 по сезону 1018.5 1010.9 +14.4 0.0
18 18.02 СВ 3 10 км 8/0
[Ci sp]
+5.2 +0.6 72 +2 +2 по сезону 1019.0 1011.4
21 18.02 С 2 10 км 10/0
[Ci sp]
+4.6 0.0 72 +2 +2 по сезону 1019.7 1012.0
00 19.02 СВ 1 10 км 3/0
[Ci sp]
+4.0 +0.6 78 +3 +3 по сезону 1019.5 1011.8
03 19.02 СВ 1 10 км 10/10 1000 м
[Sc]
+4.6 +1.1 78 +3 +3 по сезону 1019.7 1012.0 +3.8
06 19.02 ЮЗ 3 20 км 10/8 1000 м
[Sc Ac trans Ci fib]
+5.4 +1.9 78 +2 +2 по сезону 1020.5 1012.8
09 19.02 ЮВ 1 10 км 10/10 1000 м
[Sc]
+5.6 +1.4 74 +5 +5 по сезону 1020.9 1013.3
12 19.02 ЮЗ 2 20 км 10/5 1000 м
[Sc Ac trans Ci fib]
+7.5 +2.1 69 +6 +7 по сезону 1020.6 1013.0
15 19.02 СВ 2 20 км 10/3 1000 м
[Sc Ac trans Ci fib]
+5.6 +0.5 70 +3 +3 по сезону 1020.7 1013.1 +8.0
18 19.02 СВ 3 10 км 10/3 1000 м
[Sc Ac trans Ci fib]
+4.6 -0.3 70 +1 +1 по сезону 1020.5 1012.8
21 19.02 СВ 2 н/о н/о +4.6 -0.4 70 +2 +2 по сезону 1019.3 1011.7
00 20.02 СВ 2 10 км 10/0
[Ac trans Ci fib]
+4.3 -0.7 70 +2 +2 по сезону 1018.8 1011.2
03 20.02 СВ 3 10 км 10/0
[Ac trans Ci fib]
+4.2 -1.2 68 +1 +1 по сезону 1018.0 1010.4 +4.1
06 20.02 СВ 3 20 км 10/0
[Ac As Ci]
+4.9 -1.4 64 +2 +3 по сезону 1018.3 1010.7 +3.9
09 20.02 СВ 4 20 км 10/1 1000 м
[Sc Ac As Ci]
+7.3 -1.0 56 +4 +7 по сезону 1018.5 1010.9
12 20.02 СВ 3 20 км 9/3 1000 м
[Sc Ac As Ci fib]
+7.9 -0.6 55 +6 +7 по сезону 1018.0 1010.5
15 20.02 СВ 3 20 км 9/4 1000 м
[Sc Ac As Ci fib]
+5.3 -0.9 64 +2 +2 по сезону 1018.0 1010.3 +8.7
18 20.02 СВ 4-10
{10}
10 км 10/8 1000 м
[Sc Ci]
+4.9 -1.1 65 +1 +1 по сезону 1018.4 1010.8
21 20.02 СВ 3
{10}
10 км 10/8 1000 м
[Sc Ci]
+4.7 -1.0 67 +1 +1 по сезону 1017.8 1010.2
00 21.02 СВ 3 10 км 10/8 1000 м
[Sc Ci]
+4.8 -1.1 66 +2 +2 по сезону 1017.5 1009.8
03 21.02 СВ 3 10 км 10/3 1000 м
[Sc Ac As Ci]
+4.5 -1.1 67 +1 +1 по сезону 1016.9 1009.3 +4.4
06 21.02 СВ 3 20 км 10/0
[Ac trans Ci fib]
+5.8 -1.0 62 +3 +4 по сезону 1016.9 1009.3
09 21.02 СВ 3 20 км 3/0
[Ac trans]
+10.2 -0.4 48 +9 +14 тепло 1016.3 1008.8
12 21.02 ЮЗ 3 20 км 3/0
[Ci fib]
+13.7 +3.2 49 +13 +16 тепло 1015.0 1007.6
15 21.02 СВ 2 20 км 3/0
[Ac trans Ci fib]
+8.9 +0.2 54 +8 +8 тепло 1014.7 1007.2 +14.9
18 21.02 СВ 3 10 км ясно +7.3 -0.1 59 +5 +5 по сезону 1014.9 1007.3
21 21.02 СВ 2 10 км 10/0
[Ci fib]
+6.8 -0.2 61 +5 +5 тепло 1014.4 1006.8

 

Местоположение метеостанции Туапсе (Краснодарский край, Россия): широта 44.10 долгота 39.07 высота над уровнем моря 62 м.

В архиве по умолчанию представлена погода в Туапсе за последнюю неделю. Архивные данные за месяц целиком и за предыдущие месяцы, начиная с января 2011 года, Вы можете получить, выбрав интересующий диапазон дат из раскрывающегося списка и нажав кнопку "Ввод!".

Внимание! Время в таблицах - всемирное. Для получения местного времени необходимо прибавить поправку, которая в Туапсе равна 3 ч.

Смотрите также архив погоды в соседних городах и на ближайших метеорологических станциях:

Погода в Магри (Краснодарский край, Россия) (11 км)
Погода в Горном (Краснодарский край, Россия) (26 км)
Погода в Лазаревском (Краснодарский край, Россия) (30 км)
Погода в Джубге (Краснодарский край, Россия) (38 км)
Погода в Кичмае (Краснодарский край, Россия) (46 км)
Погода в Солох Ауле (Краснодарский край, Россия) (56 км)
Погода в Горячем Ключе (Краснодарский край, Россия) (59 км)
Погода в Сочи (Краснодарский край, Россия) (81 км)
Погода в Гузерипле (Адыгея, Россия) (85 км)
Погода в Шунтуке (Адыгея, Россия) (93 км)

Пояснения к столбцам:

Ветер - указаны скорость ветра в м/с - средняя за 10 мин, порывы в срок и между сроками (в фигурных скобках) и направление, откуда дует ветер: С - северный, СВ - северо-восточный, В - восточный, ЮВ - юго-восточный, Ю - южный, ЮЗ - юго-западный, З - западный, СЗ - северо-западный.
Видимость - горизонтальная дальность видимости в метрах или километрах. При видимости от 1 до 10 км при отсутствии осадков обычно наблюдается дымка, при ухудшении видимости до 1 км и менее - туман. В сухую погоду видимость может ухудшаться дымом, пылью или мглою.
Явления - указаны атмосферные явления, наблюдавшиеся в срок или в последний час перед сроком; фигурными скобками обозначены явления, наблюдавшиеся между сроками (за 1-3 часа до срока); квадратными скобками обозначены град или гололедные отложения с указанием их диаметра в мм.
Облачность - указаны через наклонную черту общая и нижняя облачность в баллах и высота нижней границы облаков в метрах; квадратными скобками обозначены формы облаков: Ci - перистые, Cs - перисто-слоистые, Cc - перисто-кучевые, Ac - высококучевые, As - высокослоистые, Sc - слоисто-кучевые, Ns - слоисто-дождевые, Cu - кучевые, Cb - кучево-дождевые. Подробнее классификацию облаков см. в Атласе облаков (PDF).
T - Температура воздуха - температура, измеренная на высоте 2 м над землей.
Td - Температура точки росы - температура, при понижении до которой содержащийся в воздухе водяной пар достигнет насыщения.
f - Относительная влажность воздуха - влажноcть воздуха, измеренная на высоте 2 м над землей.
Te - Эффективная температура - температура, которую ощущает одетый по сезону человек в тени. Характеристика душности погоды. При расчете учитывается влияние влажности воздуха и скорости ветра на теплоощущения человека.
Tes - Эффективная температура на солнце - температура, которую ощущает человек, с поправкой на солнечный нагрев. Характеристика знойности погоды. Зависит от высоты солнца над горизонтом, облачности и скорости ветра. Ночью, в пасмурную погоду, а также при ветре 12 м/с и более поправка равна нулю.
P - Атмосферное давление - приведенное к уровню моря атмосферное давление.
Po - Атмосферное давление - измеренное на уровне метеостанции атмосферное давление.
Tmin - Минимальная температура - минимум температуры воздуха на высоте 2 м над землей.
Tmax - Максимальная температура - максимум температуры воздуха на высоте 2 м над землей.
R - Количество осадков - Количество выпавших осадков за период времени, мм. При наведении курсора мыши на число - период времени, за который выпало указанное количество осадков.
R24 - Количество осадков - Количество выпавших осадков за 24 часа, мм.
S - Снежный покров - Высота снежного покрова, см. При наведении курсора мыши на число - состояние снежного покрова и степень покрытия местности в баллах.